This demonstration page uses our WeatherBlox Daily Observations layout. Learn more.

Left ArrowRight Arrow

41.12389, -100.76542

Hourly Observations for July 21, 2018

Temp ( °F °C ) Dew Point ( °F °C ) Humidity (%) Winds ( mph kmh ) Pressure ( in mb ) Visibility ( mi km ) Precip ( " mm )
12:53 am 00:53 Mostly Clear 70 21.1 70 21.1 100 100 SE 5 7 30.01 1016 10 16 0.00 0.00
1:53 am 01:53 Mostly Clear 70 21.1 70 21.1 100 100 ESE 5 7 30.00 1016 8 13 0.00 0.00
2:53 am 02:53 Clear with Mist and Fog 69 20.6 69 20.6 100 100 ESE 6 9 29.99 1016 5 8 0.00 0.00
3:53 am 03:53 Clear with Mist and Fog 68 20 68 20 100 100 SE 3 6 29.98 1015 4 6 0.00 0.00
4:21 am 04:21 Partly Cloudy with Mist and Fog 68 20 68 20 100 100 SSE 5 7 30.00 1016 4 6 0.00 0.00
4:30 am 04:30 Mostly Cloudy with Mist and Fog 68 20 68 20 100 100 SE 7 11 30.00 1016 4 6 0.00 0.00
4:46 am 04:46 Cloudy with Mist and Fog 69 20.6 69 20.6 100 100 ESE 6 9 29.97 1015 2 2 0.00 0.00
4:49 am 04:49 Cloudy with Mist and Fog 70 21 70 21 100 100 SE 7 11 29.97 1015 1 1 0.00 0.00
4:53 am 04:53 Mostly Cloudy with Fog 69 20.6 69 20.6 100 100 SE 7 11 29.99 1016 1 1 0.00 0.00
5:01 am 05:01 Mostly Cloudy with Fog 69 20.6 69 20.6 100 100 SE 7 11 29.97 1015 0 0 0.00 0.00
5:53 am 05:53 Mostly Cloudy with Fog 71 21.7 71 21.7 100 100 SE 5 7 29.99 1016 0 0 0.00 0.00
6:02 am 06:02 Mostly Cloudy with Fog 72 22.2 71 21.7 97 97 ESE 5 7 29.97 1015 1 1 0.00 0.00
6:20 am 06:20 Mostly Cloudy with Fog 71 21.7 71 21.7 100 100 ESE 6 9 29.97 1015 0 0 0.00 0.00
6:41 am 06:41 Mostly Cloudy with Fog 71 21.7 71 21.7 100 100 SE 7 11 29.97 1015 5 8 0.00 0.00
6:53 am 06:53 Mostly Cloudy with Fog 72 22.2 71 21.7 97 97 ESE 7 11 30.00 1016 5 8 0.00 0.00
7:18 am 07:18 Mostly Cloudy with Fog 72 22.2 71 21.7 97 97 SSE 6 9 30.00 1016 0 0 0.00 0.00
7:38 am 07:38 Cloudy with Mist and Fog 73 22.8 71 21.7 94 94 Calm 30.00 1016 1 1 0.00 0.00
7:50 am 07:50 Cloudy with Mist and Fog 73 22.8 71 21.7 94 94 SSE 5 7 30.02 1017 2 2 0.00 0.00
7:58 am 07:58 Cloudy with Mist and Fog 73 22.8 71 21.7 94 94 SE 5 7 30.00 1016 3 4 0.00 0.00
8:16 am 08:16 Cloudy with Mist and Fog 73 22.8 71 21.7 94 94 SE 7 11 30.00 1016 3 5 0.00 0.00
8:53 am 08:53 Partly Cloudy with Mist and Fog 72 22.2 72 22.2 100 100 SE 7 11 30.03 1017 6 10 0.00 0.00
9:53 am 09:53 Sunny 77 25 71 21.7 82 82 S 8 13 30.04 1017 10 16 0.00 0.00
10:53 am 10:53 Sunny 80 26.7 71 21.7 74 74 SSE 7 11 30.04 1017 10 16 0.00 0.00
11:53 am 11:53 Sunny 84 28.9 70 21.1 63 63 S 13 20 30.03 1017 10 16 0.00 0.00
12:53 pm 12:53 Sunny 85 29.4 70 21.1 61 61 S 12 19 30.01 1016 10 16 0.00 0.00
1:53 pm 13:53 Sunny 86 30 70 21.1 59 59 SSE 12 19 30.00 1016 10 16 0.00 0.00
2:53 pm 14:53 Sunny 87 30.6 71 21.7 59 59 SSE 12 19 29.99 1016 10 16 0.00 0.00
3:53 pm 15:53 Sunny 88 31.1 72 22.2 59 59 SSE 10 17 29.98 1015 10 16 0.00 0.00
4:53 pm 16:53 Sunny 88 31.1 72 22.2 59 59 SSE 12 19 29.97 1015 10 16 0.00 0.00
5:53 pm 17:53 Sunny 84 28.9 71 21.7 65 65 SSE 10 17 29.96 1014 10 16 0.00 0.00
6:53 pm 18:53 Sunny 84 28.9 71 21.7 65 65 S 9 15 29.95 1014 10 16 0.00 0.00
7:53 pm 19:53 Sunny 83 28.3 71 21.7 67 67 SSE 12 19 29.93 1014 10 16 0.00 0.00
8:53 pm 20:53 Sunny 80 26.7 71 21.7 74 74 SSE 8 13 29.96 1015 10 16 0.00 0.00
9:53 pm 21:53 Clear 77 25 72 22.2 85 85 SSE 6 9 29.97 1015 10 16 0.00 0.00
10:53 pm 22:53 Clear 77 25 71 21.7 82 82 SSE 7 11 29.98 1015 10 16 0.00 0.00
11:53 pm 23:53 Clear 74 23.3 72 22.2 94 94 ESE 7 11 29.99 1016 10 16 0.00 0.00

Powered by AerisWeather